[Iaude] MPEC U264: 2023 FZ48 [a=2.27,e=0.59,i=5.3,H=29.5]

mpec at marsden.cfa.harvard.edu mpec at marsden.cfa.harvard.edu
Wed Oct 25 17:36:19 EDT 2023


M.P.E.C. 2023-U264                             Issued 2023 October 25, 21:33 UT

     The Minor Planet Electronic Circulars contain information on unusual
         minor planets, routine data on comets and natural satellites,
         and occasional editorial announcements.  They are published
    on behalf of Division F of the International Astronomical Union by the
          Minor Planet Center, Smithsonian Astrophysical Observatory,
                          Cambridge, MA 02138, U.S.A.
			  
             Prepared using the Tamkin Foundation Computer Network

                              MPC at CFA.HARVARD.EDU
            URL https://www.minorplanetcenter.net/    ISSN 1523-6714

                                   2023 FZ48                                    


Observations:
     K23F48Z* C2023 03 20.50679910 42 26.400+20 20 56.29         16.0 GVEU264P07
     K23F48Z  C2023 03 20.55532211 24 08.770+18 59 58.60         16.2 GVEU264P07
     K23F48Z  C2023 03 20.64837812 19 42.082+16 08 04.45         16.4 GVEU264P07
     K23F48Z  C2023 03 20.70366912 41 45.473+14 38 54.38         17.3 GVEU264P07
     K23F48Z  C2023 03 20.75823412 58 21.038+13 23 53.70         16.5 GVEU264P07

Observer details:
P07 Space Surveillance Telescope, HEH Station.  Observers M. Blythe, R.
    Brungard, P. Festler, T. McVey, J. Paige, G. Spitz, L. Banks.  Measurers
    M. Cornell, M. Kotson, R. Rios, J. Ruprecht, J. Vaillancourt, J. Varey, H.
    Viggh, D. Woods, R. Monardez.  3.5-m f/1. Reflector + CCD.

Orbital elements:
2023 FZ48                                                Earth MOID = 0.0004 AU
Epoch 2023 Sept. 13.0 TT = JDT 2460200.5                Veres                   
M  58.16032              (2000.0)            P               Q                  
n   0.28884672     Peri.  327.61044     -0.83595854     -0.54879068             
a   2.2665106      Node   179.10159     +0.52114986     -0.79467607             
e   0.5856633      Incl.    5.30377     +0.17197716     -0.25945853             
P   3.41           H   29.52          G   0.15           U   9                  
Residuals in seconds of arc
230320 P07  0.0   0.0     230320 P07  0.1-  0.0     230320 P07  0.1-  0.0
230320 P07  0.0   0.0     230320 P07  0.2+  0.0

Ephemeris:
2023 FZ48                a,e,i = 2.27, 0.59, 5                   q = 0.9391
Date    TT    R. A. (2000) Decl.     Delta      r    Elong.  Phase     V
2023 09 25    16 48 40.5 -17 22 40   2.5005  2.3833    71.7    23.5    34.5
...
2023 10 10    17 12 04.8 -18 18 31   2.7718  2.4762    62.6    21.0    34.7
...
2023 10 18    17 24 47.0 -18 41 19   2.9114  2.5240    57.7    19.5    34.8
...
2023 10 24    17 34 22.9 -18 55 10   3.0129  2.5590    54.1    18.3    34.9
2023 10 25    17 35 59.2 -18 57 12   3.0296  2.5648    53.4    18.1    34.9
2023 10 26    17 37 35.5 -18 59 09   3.0461  2.5705    52.8    18.0    34.9
...
2023 11 01    17 47 14.5 -19 09 17   3.1435  2.6046    49.1    16.8    35.0
...
2023 11 09    18 00 08.6 -19 18 28   3.2677  2.6491    44.2    15.1
...
2023 11 24    18 24 20.3 -19 22 32   3.4807  2.7293    34.8    11.9

M. P. C. Staff               (C) Copyright 2023 MPC           M.P.E.C. 2023-U264





More information about the Iaude mailing list